Location: Twentynine Palms Airport
(34.1316°N, 115.9458°W)
Time: 02:23:58
(UTC-07:00)

Oscar 19 - Visible Passes

Search period start: 27 June 2016 00:00
Search period end: 07 July 2016 00:00
Orbit: 773 x 791 km, 98.5° (Epoch: 26 June)

Date Brightness Start Highest point End Pass type
(mag) Time Alt. Az. Time Alt. Az. Time Alt. Az.
27 Jun 12.0 01:32:57 10° NE 01:36:35 30° ENE 01:36:35 30° ENE visible
27 Jun 12.0 03:12:34 10° NNW 03:16:39 24° WNW 03:17:09 24° WNW visible
28 Jun 12.9 01:02:34 10° ENE 01:04:24 14° ENE 01:04:24 14° ENE visible
28 Jun 11.0 02:40:09 10° N 02:44:57 50° WNW 02:44:57 50° WNW visible
29 Jun 10.8 02:08:14 10° NNE 02:12:45 67° NE 02:12:45 67° NE visible
29 Jun 12.8 03:50:48 10° NW 03:51:59 11° WNW 03:53:10 10° WNW visible
30 Jun 11.9 01:36:49 10° NNE 01:40:33 33° ENE 01:40:33 33° ENE visible
30 Jun 12.1 03:16:41 10° NNW 03:20:35 22° WNW 03:21:07 22° WNW visible
01 Jul 12.8 01:06:15 10° NE 01:08:21 16° ENE 01:08:21 16° ENE visible
01 Jul 11.1 02:44:10 10° N 02:48:54 45° WNW 02:48:54 45° WNW visible
02 Jul 10.8 02:12:11 10° NNE 02:16:42 69° NNE 02:16:42 69° NNE visible
03 Jul 11.8 01:40:43 10° NNE 01:44:30 36° ENE 01:44:30 36° ENE visible
03 Jul 12.2 03:20:47 10° NNW 03:24:31 21° WNW 03:25:03 20° WNW visible
04 Jul 12.7 01:09:59 10° NE 01:12:18 17° ENE 01:12:18 17° ENE visible
04 Jul 11.3 02:48:10 10° N 02:52:51 41° WNW 02:52:51 41° WNW visible
05 Jul 10.8 02:16:09 10° NNE 02:20:39 69° N 02:20:39 69° N visible
06 Jul 11.7 01:44:36 10° NNE 01:48:26 38° ENE 01:48:26 38° ENE visible
06 Jul 12.3 03:24:55 10° NNW 03:28:26 19° WNW 03:28:59 19° WNW visible
